Weather History for YBHM - September, 2013

Change the Weather History Date:

Thursday, September 12, 2013

  Actual Average Record
Temperature  
Mean Temperature 76 °F -  
Max Temperature 82 °F - - ()
Min Temperature 70 °F - - ()
Cooling Degree Days 11    
Growing Degree Days 26 (Base 50)    
Moisture  
Dew Point 69 °F    
Average Humidity 83    
Maximum Humidity 100    
Minimum Humidity 44    
Precipitation  
Precipitation 0.00 in - - ()
Sea Level Pressure  
Sea Level Pressure 29.97 in    
Wind  
Wind Speed 17 mph ()    
Max Wind Speed 23 mph    
Max Gust Speed -    
T = Trace of Precipitation, MM = Missing Value Source: Averaged Metar Reports

Daily Weather History Graph

Daily Weather History Graph

Search for Another Location

Airport or City:

Trip Planner

Search our weather history database for the weather conditions in past years. The results will help you decide how hot, cold, wet, or windy it might be!

Date:

Astronomy

Sep. 12, 2013 Rise Set
Actual Time 6:03 AM AEST 5:58 PM AEST
Civil Twilight 5:41 AM AEST 6:20 PM AEST
Nautical Twilight 5:15 AM AEST 6:45 PM AEST
Astronomical Twilight 4:50 AM AEST 7:11 PM AEST
Moon 10:48 AM AEST (9/12) No Moon Set
Length of Visible Light 12h 38m
Length of Day
11h 54m
Waxing Crescent, 43% of the Moon is Illuminated
Sep 12
Waxing Crescent
Sep 13
First Quarter
Sep 19
Full
Sep 27
Last Quarter
Oct 5
New

Hourly Weather History & Observations

Time (AEST) Temp. Heat Index Dew Point Humidity Pressure Visibility Wind Dir Wind Speed Gust Speed Precip Events Conditions
12:00 AM 71 °F - - % 30.01 in - NW 17.3 mph - -  
12:00 AM 71.6 °F - 71.6 °F 100% 30.01 in - NW 17.3 mph - N/A   Unknown
12:30 AM 71.6 °F - 71.6 °F 100% 30.01 in - NW 19.6 mph - N/A   Unknown
1:00 AM 71.6 °F - 71.6 °F 100% 29.98 in - NW 20.7 mph - N/A   Unknown
1:30 AM 71.6 °F - 71.6 °F 100% 29.98 in - NW 19.6 mph - N/A   Unknown
2:00 AM 71.6 °F - 71.6 °F 100% 29.98 in - NW 19.6 mph - N/A   Unknown
2:30 AM 71.6 °F - 71.6 °F 100% 29.98 in - NW 20.7 mph - N/A   Unknown
3:00 AM 71 °F - 71 °F 100% 29.96 in - NW 21.9 mph - -  
3:00 AM 71.6 °F - 71.6 °F 100% 29.95 in - NW 21.9 mph - N/A   Unknown
3:30 AM 71.6 °F - 71.6 °F 100% 29.95 in - NW 23.0 mph - N/A   Unknown
4:00 AM 71.6 °F - 71.6 °F 100% 29.98 in - NW 21.9 mph - N/A   Unknown
4:30 AM 71.6 °F - 71.6 °F 100% 29.98 in - NW 18.4 mph - N/A   Unknown
5:00 AM 71.6 °F - 71.6 °F 100% 29.98 in - NW 18.4 mph - N/A   Unknown
5:30 AM 71.6 °F - 71.6 °F 100% 29.98 in - NW 16.1 mph - N/A   Unknown
6:00 AM 71.6 °F - 71.6 °F 100% 30.01 in - NW 16.1 mph - N/A   Unknown
6:30 AM 71.6 °F - 71.6 °F 100% 30.01 in - NW 16.1 mph - N/A   Unknown
7:00 AM 71.6 °F - 71.6 °F 100% 30.01 in - NW 17.3 mph - N/A   Unknown
7:30 AM 71.6 °F - 71.6 °F 100% 30.01 in - NW 17.3 mph - N/A   Unknown
8:00 AM 73.4 °F - 71.6 °F 94% 30.04 in - NW 16.1 mph - N/A   Unknown
8:30 AM 73.4 °F - 71.6 °F 94% 30.04 in - NW 16.1 mph - N/A   Unknown
9:00 AM 74 °F - 70 °F 83% 30.04 in - NW 15.0 mph - -  
9:00 AM 75.2 °F - 69.8 °F 83% 30.04 in - NW 15.0 mph - N/A   Unknown
9:30 AM 75.2 °F - 69.8 °F 83% 30.04 in - NW 15.0 mph - N/A   Unknown
10:00 AM 77.0 °F - 68.0 °F 74% 30.04 in - NW 13.8 mph - N/A   Unknown
10:30 AM 78.8 °F - 68.0 °F 69% 30.04 in - NNW 13.8 mph - N/A   Unknown
11:00 AM 78.8 °F - 66.2 °F 65% 30.01 in - NNW 13.8 mph - N/A   Unknown
11:30 AM 80.6 °F 82.7 °F 66.2 °F 61% 30.01 in - NW 15.0 mph - N/A   Unknown
12:00 PM 81 °F - 64 °F 46% 29.99 in - NW 15.0 mph - -  
12:00 PM 80.6 °F 82.3 °F 64.4 °F 58% 29.98 in - NW 15.0 mph - N/A   Unknown
12:30 PM 80.6 °F 81.5 °F 60.8 °F 51% 29.98 in - NNW 19.6 mph - N/A   Unknown
1:00 PM 82.4 °F 83.4 °F 62.6 °F 51% 29.95 in - NNW 18.4 mph - N/A   Unknown
1:30 PM 82.4 °F 83.4 °F 62.6 °F 51% 29.95 in - NW 15.0 mph - N/A   Unknown
2:00 PM 82.4 °F 82.9 °F 60.8 °F 48% 29.92 in - NNW 15.0 mph - N/A   Unknown
2:30 PM 82.4 °F 83.4 °F 62.6 °F 51% 29.92 in - NW 16.1 mph - N/A   Unknown
3:00 PM 80 °F - 62 °F 44% 29.91 in - NW 18.4 mph - -  
3:00 PM 80.6 °F 81.8 °F 62.6 °F 54% 29.92 in - NW 18.4 mph - N/A   Unknown
3:30 PM 78.8 °F - 62.6 °F 57% 29.89 in - NW 21.9 mph - N/A   Unknown
4:00 PM 78.8 °F - 68.0 °F 69% 29.92 in - NW 18.4 mph - N/A   Unknown
4:30 PM 77.0 °F - 69.8 °F 78% 29.92 in - NW 23.0 mph - N/A   Unknown
5:00 PM 77.0 °F - 66.2 °F 69% 29.92 in - NW 21.9 mph - N/A   Unknown
5:30 PM 75.2 °F - 66.2 °F 73% 29.92 in - NW 20.7 mph - N/A   Unknown
6:00 PM 75 °F - 66 °F 67% 29.93 in - NW 19.6 mph - -  
6:00 PM 75.2 °F - 66.2 °F 73% 29.92 in - NW 19.6 mph - N/A   Unknown
6:30 PM 73.4 °F - 68.0 °F 83% 29.92 in - NW 18.4 mph - N/A   Unknown
7:00 PM 73.4 °F - 68.0 °F 83% 29.95 in - NNW 18.4 mph - N/A   Unknown
7:30 PM 73.4 °F - 69.8 °F 88% 29.95 in - NW 19.6 mph - N/A   Unknown
8:00 PM 73.4 °F - 71.6 °F 94% 29.98 in - NW 13.8 mph - N/A   Unknown
8:30 PM 71.6 °F - 71.6 °F 100% 29.98 in - NW 17.3 mph - N/A   Unknown
9:00 PM 72 °F - 72 °F 99% 29.98 in - NNW 17.3 mph - -  
9:00 PM 71.6 °F - 71.6 °F 100% 29.98 in - NNW 17.3 mph - N/A   Unknown
9:30 PM 71.6 °F - 71.6 °F 100% 29.98 in - NNW 16.1 mph - N/A   Unknown
10:00 PM 71.6 °F - 71.6 °F 100% 29.98 in - NW 18.4 mph - N/A   Unknown
10:30 PM 71.6 °F - 71.6 °F 100% 29.98 in - NW 20.7 mph - N/A   Unknown
11:00 PM 71.6 °F - 71.6 °F 100% 29.95 in - NW 20.7 mph - N/A   Unknown
11:30 PM 71.6 °F - 71.6 °F 100% 29.95 in - NW 18.4 mph - N/A   Unknown